This demonstration page uses our WeatherBlox Daily Observations layout. Learn more.

Left ArrowRight Arrow

41.86663, -103.66717

Hourly Observations for March 20, 2016

Temp ( °F °C ) Dew Point ( °F °C ) Humidity (%) Winds ( mph kmh ) Pressure ( in mb ) Visibility ( mi km ) Precip ( " mm )
12:53 am 00:53 Clear 15 -9.4 8 -13.3 74 74 E 6 9 30.45 1031 10 16 N/A
1:53 am 01:53 Clear 15 -9.4 8 -13.3 74 74 E 7 11 30.43 1031 10 16 N/A
2:53 am 02:53 Clear 16 -9 9 -13 73 73 E 9 15 30.56 1035 10 16 N/A
3:53 am 03:53 Clear 16 -8.9 9 -12.8 74 74 E 8 13 30.37 1029 10 16 N/A
4:53 am 04:53 Clear 16 -8.9 9 -12.8 74 74 E 7 11 30.37 1029 10 16 N/A
5:53 am 05:53 Clear 14 -10 7 -13.9 73 73 E 6 9 30.38 1029 10 16 N/A
6:53 am 06:53 Clear 13 -10.6 6 -14.4 74 74 N N/A 30.40 1030 10 16 N/A
8:53 am 08:53 Sunny 24 -4.4 13 -10.6 62 62 VRB 3 6 30.40 1030 10 16 N/A
10:53 am 10:53 Sunny 37 2.8 12 -11.1 36 36 SE 3 6 30.34 1028 10 16 N/A
12:53 pm 12:53 Sunny 50 10 10 -12.2 20 20 SSE 6 9 30.23 1024 10 16 N/A
2:53 pm 14:53 Sunny 59 15 1 -17.2 9 9 SSW 8 13 30.12 1020 10 16 N/A
3:53 pm 15:53 Sunny 62 16.7 -1 -18.3 8 8 WNW 6 9 30.08 1019 10 16 N/A
4:53 pm 16:53 Sunny 62 16.7 1 -17.2 8 8 W 6 9 30.05 1018 10 16 N/A
5:53 pm 17:53 Sunny 63 17.2 4 -15.6 9 9 W 3 6 30.04 1017 10 16 N/A
6:53 pm 18:53 Sunny 52 11.1 12 -11.1 20 20 ESE 6 9 30.06 1018 10 16 N/A
7:53 pm 19:53 Clear 47 8.3 6 -14.4 19 19 E 6 9 30.07 1018 10 16 N/A
8:53 pm 20:53 Clear 48 9 N/A N/A N N/A 30.05 1018 10 16 N/A
9:53 pm 21:53 Clear 34 1 N/A N/A NNE 3 6 30.07 1018 10 16 N/A
10:53 pm 22:53 Clear 32 undefined N/A N/A E 7 11 30.04 1017 10 16 N/A
11:53 pm 23:53 Clear 34 1 N/A N/A E 6 9 29.99 1016 10 16 N/A

Powered by AerisWeather